Regional Weather Roundup
Issued by NWS

Home | Current Version | Previous Version | Graphics & Text | Print | Product List | Glossary On
Versions: 1 2 3 4 5 6 7 8 9 10 11 12 13 14 15 16 17 18 19 20 21 22 23 24 25 26 27 28 29 30 31 32 33 34 35 36 37 38 39 40 41 42 43 44 45 46 47 48 49 50
507
ASUS43 KIND 020809
RWRIN

WEATHER ROUNDUP FOR INDIANA
NATIONAL WEATHER SERVICE INDIANAPOLIS IN
300 AM EST FRI DEC 02 2016

NOTE: "FAIR" INDICATES FEW OR NO CLOUDS BELOW 12,000 FEET WITH NO
SIGNIFICANT WEATHER AND/OR OBSTRUCTIONS TO VISIBILITY.

* - STATION DOES NOT REPORT WEATHER SUCH AS PRECIPITATION OR FOG.

+ - STATION NOT QUALITY CONTROLLED BY THE NATIONAL WEATHER SERVICE.
    USE DATA WITH CAUTION...ESPECIALLY DEWPOINT AND RELATIVE
    HUMIDITY OBSERVATIONS.

INZ001>003-010>013-019-020-020900-
NORTHWEST INDIANA

CITY           SKY/WX    TMP DP  RH WIND       PRES   REMARKS
GARY /AIRPORT/ CLOUDY    38  36  89 SW5       30.04S
KNOX *+        CLOUDY    36  23  60 W9        30.04R
LA PORTE +     CLOUDY    38  38 100 W9        30.03R
MICHIGAN CITY+ MIX PCPN  36  32  87 SW8       30.02S
MONTICELLO +   CLOUDY    36  28  75 W7        30.06R
RENSSELAER +   CLOUDY    36  34  93 SW10      30.06R
VALPARAISO     CLOUDY    37  33  85 W8        30.04R

$$

LMZ046-743>745-020900-
SOUTHERN LAKE MICHIGAN

STATION/POSITION TIME  TEMP    WIND        PRES    WAVE
                       AIR SEA DIR/SP/G            HT
                 (UTC) (F)     (DEG/KT/KT) (MB)    (FT)
BURNS HARBOR     0740   38     230/ 14/ 16 1017.3R
MICHIGAN CITY    0740   39     240/ 21/ 26   N/A

$$

INZ004-005-014>016-021>024-020900-
NORTH CENTRAL INDIANA

CITY           SKY/WX    TMP DP  RH WIND       PRES   REMARKS
GOSHEN         CLOUDY    37  31  78 W14       30.01R
LOGANSPORT +   CLOUDY    34  32  93 W8        30.07R WCI  27
PERU/GRISSOM   CLOUDY    36  32  84 W12       30.04R
ROCHESTER +    MIX PCPN  37  36  93 W8        30.05R
SOUTH BEND     CLOUDY    36  32  85 SW9       30.02R
WARSAW +       CLOUDY    36  32  87 SW9       30.03R

$$

INZ006>009-017-018-025>027-020900-
NORTHEAST INDIANA

CITY           SKY/WX    TMP DP  RH WIND       PRES   REMARKS
ANGOLA *+      CLOUDY    36  34  93 W9        29.98R
AUBURN +       CLOUDY    36  32  87 W8        30.01R
FORT WAYNE     CLOUDY    36  31  82 W13       30.03R
HUNTINGTON +   CLOUDY    35  32  88 SW10G16   30.04R WCI  27
KENDALLVILLE + CLOUDY    36  32  85 W10       30.00R

$$

INZ028-029-035-036-043>045-051>053-020900-
WEST CENTRAL INDIANA

CITY           SKY/WX    TMP DP  RH WIND       PRES   REMARKS
CRAWFORDSVL +  CLOUDY    34  29  84 W6        30.09R WCI  28
GREENCASTLE +  CLOUDY    34  32  93 W5        30.10R WCI  30
LAFAYETTE      CLOUDY    36  30  79 SW6       30.08R
TERRE HAUTE    CLOUDY    36  30  79 SW7       30.13R

$$

INZ030>032-037>040-046>048-054>057-064-065-020900-
CENTRAL INDIANA

CITY           SKY/WX    TMP DP  RH WIND       PRES   REMARKS
CP ATTERBURY + CLOUDY    36  30  80 W5        30.11R
FISHERS *+     CLOUDY    34  32  93 W7        30.09R WCI  28
FRANKFORT +    CLOUDY    38  32  80 W13       30.09R
GREENWOOD *+   CLOUDY    36  30  78 W7        30.10R
INDIANAPOLIS   CLOUDY    36  29  75 W9        30.09R
-EAGLE CREEK   CLOUDY    37  29  72 W7        30.08R
KOKOMO +       CLOUDY    36  30  79 SW13      30.06R
MARION +       CLOUDY    35  31  85 W14       30.06R WCI  26
MT COMFORT *+  CLOUDY    36  30  80 W10       30.08R
SHELBYVILLE    CLOUDY    37  29  72 W9        30.09R
ZIONSVILLE +   CLOUDY    34  30  84 W8        30.08R WCI  28

$$

INZ033-034-041-042-049-050-058-059-020900-
EAST CENTRAL INDIANA

CITY           SKY/WX    TMP DP  RH WIND       PRES   REMARKS
MUNCIE         CLOUDY    37  29  72 W13       30.06R

$$

INZ060-061-067>069-081>083-085>088-020900-
SOUTHWEST INDIANA

CITY           SKY/WX    TMP DP  RH WIND       PRES   REMARKS
EVANSVILLE     CLEAR     29  27  92 CALM      30.16R
HUNTINGBURG *+ CLEAR     26  24  92 CALM      30.16R
WASHINGTON +   CLEAR     32  31  98 CALM      30.15R

$$

INZ062-063-066-070>080-084-089>092-020900-
SOUTH CENTRAL AND SOUTHEAST INDIANA

CITY           SKY/WX    TMP DP  RH WIND       PRES   REMARKS
BLOOMINGTON    PTCLDY    32  27  81 SW3       30.11R
MADISON *+     PTCLDY    32  28  86 SW3       30.13R
NORTH VERNON + CLOUDY    37  34  87 W5        30.11R
SEYMOUR +      MOCLDY    34  28  80 SW5       30.12R WCI  30

$$





USA.gov is the U.S. government's official web portal to all federal, state and local government web resources and services.